Other Surface Observations
Issued by NWS Tucson, AZ

Home | Current Version | Previous Version | Text Only | Print | Product List | Glossary On
Versions: 1 2 3 4 5 6 7 8 9 10 11 12 13 14 15 16 17 18 19 20 21 22 23 24 25 26 27 28 29 30 31 32 33 34 35 36 37 38 39 40 41 42 43 44 45 46 47 48 49 50
833
SXUS55 KTWC 140615
OSOTWC

WEATHER ROUNDUP FOR SOUTHEAST ARIZONA
NATIONAL WEATHER SERVICE TUCSON AZ
1115 PM MST SAT FEB 13 2016

AZZ504>506-514-140715-
LOCATION       SKY/WX    TMP DP  RH WIND       PRES   REMARKS
TUCSON         MOCLDY    61  24  24 SW3       30.07S
DAVIS-MONTHAN  MOCLDY    56  25  30 SE7       30.06R
CHILDRENS PARK N/A      N/A N/A  22 NW4               PIMA CO DEQ
ALVERNON/22ND  N/A      N/A N/A N/A N/A               PIMA CO DEQ
CHERRY/GLENN   N/A       65 N/A N/A W3                PIMA CO DEQ
TANGERINE      N/A       63 N/A N/A NE7               PIMA CO DEQ
CONTL RANCH    N/A       58  28  31 NE2               PIMA CO DEQ
GRANT/1ST      N/A       66  26  22 NE5               PIMA CO DEQ
CRAYCROFT/22ND N/A       63  24  22 S5                PIMA CO DEQ
GOLFLINKS/KOLB N/A       63  24  22 S5                PIMA CO DEQ
AJO/12TH       N/A       63  22  21 S7                PIMA CO DEQ
SAGUARO EAST   N/A       18 -13  22 S9                PIMA CO DEQ
FAIRGROUNDS    N/A       59 N/A N/A S5                PIMA CO DEQ
SAGUARO        N/A       57  22  26 SW3               *SABINO CYN
SAN CARLOS     N/A       54  23  30 N4                *SAN CARLOS
GREEN VALLEY   N/A       60  20  21 SW1               PIMA CO DEQ
HORSE CAMP CYN N/A       62  24  23 NW4               *ARAVAIPA CYN
RINCON MTNS    N/A       43  11  27 CALM              *NR MANNING CAMP
$$

AZZ509>511-140715-
LOCATION       SKY/WX    TMP DP  RH WIND       PRES   REMARKS
SAFFORD        PTCLDY    50  20  30 SE6       30.04S
STRAY HORSE    N/A       47   8  20 N5G14             *
TRAIL CABIN    N/A       52   9  17 SW5               *N OF GRANVILLE
BLACK HILLS    N/A       60  21  22 W4                *N OF FT THOMAS
DRY LAKE       N/A       47   7  19 N5                *NATANES MTNS
NOON CREEK     N/A       55  20  25 SW10G13           *PINALENO MTNS
COLUMBINE      N/A       32  15  48 CALM              *PINALENO MTNS
GUTHRIE        N/A       57   7  13 NW15G22           *SW OF GUTHRIE
$$

AZZ502-503-513-140715-
LOCATION       SKY/WX    TMP DP  RH WIND       PRES   REMARKS
NOGALES        PTCLDY    50  19  29 CALM      30.11R
SELLS          N/A       64  18  17 E5                *
SASABE         N/A       47  23  38 SW3               *ALTAR VLY
HOPKINS        N/A       54  11  18 W9G14             *SANTA RITA MTNS
CARR CYN       N/A       50  20  30 SW2               *W OF HEREFORD
$$

AZZ507-508-512-140715-
LOCATION       SKY/WX    TMP DP  RH WIND       PRES   REMARKS
SIERRA VISTA   MOCLDY    56  11  16 SW10      30.15S
DOUGLAS        PTCLDY    50  17  27 N9        30.11R
EMPIRE MTNS    N/A       45  15  30 W5                *LAS CIENEGAS NCA
MULESHOE RANCH N/A       52  16  24 CALM              *PRESERVE
HEADQUARTERS   N/A       50  19  29 E3                *CHIRICAHUA MTNS
$$

.............................NOTES.............................
THIS IS AN AUTOMATED COLLECTIVE WITH MINIMAL QUALITY CONTROL.
PIMA CO DEQ SITES HAVE NONSTANDARD WIND SENSOR HEIGHTS.
PIMA CO DEQ SITES DO NOT REPORT WIND GUSTS.
* INDICATES WIND SENSORS LOCATED AT 20 FEET INSTEAD OF 33 FEET.
..............................KEY..............................
SKY/WX - SKY CONDITION/WEATHER
TMP    - TEMPERATURE IN FAHRENHEIT
DP     - DEWPOINT IN FAHRENHEIT
RH     - RELATIVE HUMIDITY IN PERCENT
WIND   - DIRECTION AND SPEED IN MILES PER HOUR (MPH)
VRB    - VARIABLE WIND DIRECTION
PRES   - MEAN SEA LEVEL PRESSURE IN INCHES OF MERCURY
         F - FALLING PRESSURE   R - RISING PRESSURE
         S - STEADY PRESSURE
VSB    - VISIBILITY IN MILES
HX     - HEAT INDEX IN FAHRENHEIT
WCI    - WIND CHILL INDEX IN FAHRENHEIT
N/A    - NOT AVAILABLE
AFB    - AIR FORCE BASE
         DAVIS-MONTHAN IS DAVIS-MONTHAN AIR FORCE BASE
CYN    - CANYON
MTNS   - MOUNTAINS
NCA    - NATIONAL CONSERVATION AREA
NR     - NEAR
VLY    - VALLEY
CONTL  - CONTINENTAL
PIMA CO DEQ - PIMA COUNTY DEPT OF ENVIRONMENTAL QUALITY



USA.gov is the U.S. government's official web portal to all federal, state and local government web resources and services.